Weather History for Chino, CA

Change the Weather History Date:

Saturday, July 13, 2013

  Actual Average Record
Temperature  
Mean Temperature 76 °F -  
Max Temperature 93 °F 89 °F 102 °F (2004)
Min Temperature 61 °F 57 °F 52 °F (2000)
Cooling Degree Days 11    
Growing Degree Days 26 (Base 50)    
Moisture  
Dew Point 59 °F    
Average Humidity 61    
Maximum Humidity 93    
Minimum Humidity 29    
Precipitation  
Precipitation 0.00 in - - ()
Sea Level Pressure  
Sea Level Pressure 29.91 in    
Wind  
Wind Speed 5 mph (West)    
Max Wind Speed 16 mph    
Max Gust Speed 21 mph    
Visibility 7 miles    
Events      
Averages and records for this station are not official NWS values.
T = Trace of Precipitation, MM = Missing Value Source: NWS Daily Summary

Daily Weather History Graph

Daily Weather History Graph

Search for Another Location

Airport:

Trip Planner

Search our weather history database for the weather conditions in past years. The results will help you decide how hot, cold, wet, or windy it might be!

Date:

Astronomy

Jul. 13, 2013 Rise Set
Actual Time 5:49 AM PDT 8:02 PM PDT
Civil Twilight 5:20 AM PDT 8:31 PM PDT
Nautical Twilight 4:45 AM PDT 9:06 PM PDT
Astronomical Twilight 4:07 AM PDT 9:44 PM PDT
Moon 10:53 AM PDT (7/13) 11:04 PM PDT (7/13)
Length of Visible Light 15h 10m
Length of Day
14h 13m
Waxing Crescent, 26% of the Moon is Illuminated
Jul 13
Waxing Crescent
Jul 15
First Quarter
Jul 22
Full
Jul 29
Last Quarter
Aug 6
New

Hourly Weather History & Observations

Time (PDT) Temp. Heat Index Dew Point Humidity Pressure Visibility Wind Dir Wind Speed Gust Speed Precip Events Conditions
12:53 AM 66.0 °F - 61.0 °F 84% 29.92 in 6.0 mi WNW 5.8 mph - N/A   Haze
1:53 AM 64.0 °F - 59.0 °F 84% 29.93 in 6.0 mi Calm Calm - N/A   Haze
2:53 AM 63.0 °F - 59.0 °F 87% 29.93 in 5.0 mi WSW 3.5 mph - N/A   Clear
3:53 AM 63.0 °F - 60.1 °F 90% 29.92 in 4.0 mi West 4.6 mph - N/A   Clear
4:53 AM 62.1 °F - 59.0 °F 90% 29.93 in 3.0 mi West 3.5 mph - N/A   Clear
5:53 AM 61.0 °F - 59.0 °F 93% 29.94 in 2.0 mi Calm Calm - N/A   Clear
6:53 AM 63.0 °F - 61.0 °F 93% 29.94 in 3.0 mi Calm Calm - N/A   Partly Cloudy
7:53 AM 66.0 °F - 61.0 °F 84% 29.95 in 3.0 mi Calm Calm - N/A   Haze
8:53 AM 72.0 °F - 61.0 °F 68% 29.96 in 4.0 mi Calm Calm - N/A   Haze
9:53 AM 77.0 °F - 60.1 °F 56% 29.94 in 6.0 mi Variable 3.5 mph - N/A   Haze
10:53 AM 82.0 °F 81.6 °F 55.9 °F 41% 29.94 in 7.0 mi Variable 3.5 mph - N/A   Partly Cloudy
11:53 AM 88.0 °F 87.1 °F 59.0 °F 37% 29.92 in 10.0 mi WNW 8.1 mph - N/A   Partly Cloudy
12:53 PM 91.0 °F 88.9 °F 55.0 °F 29% 29.91 in 10.0 mi West 9.2 mph - N/A   Partly Cloudy
1:53 PM 91.9 °F 90.3 °F 55.9 °F 30% 29.89 in 10.0 mi WSW 13.8 mph - N/A   Partly Cloudy
2:53 PM 91.9 °F 90.6 °F 57.0 °F 31% 29.88 in 10.0 mi West 15.0 mph 20.7 mph N/A   Partly Cloudy
3:53 PM 91.0 °F 89.2 °F 55.9 °F 30% 29.86 in 10.0 mi West 13.8 mph - N/A   Partly Cloudy
4:53 PM 88.0 °F 86.5 °F 55.9 °F 34% 29.84 in 10.0 mi WSW 16.1 mph - N/A   Partly Cloudy
5:53 PM 86.0 °F 84.9 °F 57.0 °F 37% 29.84 in 10.0 mi WSW 13.8 mph - N/A   Partly Cloudy
6:53 PM 82.0 °F 82.0 °F 57.9 °F 44% 29.86 in 10.0 mi WSW 12.7 mph - N/A   Partly Cloudy
7:53 PM 77.0 °F - 59.0 °F 54% 29.87 in 10.0 mi West 9.2 mph - N/A   Partly Cloudy
8:53 PM 73.9 °F - 59.0 °F 59% 29.88 in 8.0 mi West 10.4 mph - N/A   Clear
9:53 PM 72.0 °F - 59.0 °F 64% 29.91 in 8.0 mi WNW 4.6 mph - N/A   Clear
10:53 PM 69.1 °F - 59.0 °F 70% 29.92 in 8.0 mi West 6.9 mph - N/A   Clear
11:53 PM 69.1 °F - 59.0 °F 70% 29.91 in 7.0 mi West 4.6 mph - N/A   Clear